Weather History for Santa Rosa, CA

Change the Weather History Date:

Thursday, November 7, 2013

  Actual Average Record
Temperature  
Mean Temperature 60 °F 55 °F  
Max Temperature 76 °F 68 °F 77 °F (2006)
Min Temperature 44 °F 42 °F 33 °F (2011)
Degree Days  
Heating Degree Days 5    
Month to date heating degree days 57  
Since 1 July heating degree days 300  
Cooling Degree Days 0    
Month to date cooling degree days 0  
Year to date cooling degree days 415  
Growing Degree Days 10 (Base 50)    
Moisture  
Dew Point 41 °F    
Average Humidity 60    
Maximum Humidity 93    
Minimum Humidity 27    
Precipitation  
Precipitation 0.00 in 0.15 in 2.36 in (2002)
Month to date precipitation 0.00 1.06  
Year to date precipitation 7.05 25.62  
Since 1 July precipitation 0.53 3.53  
Sea Level Pressure  
Sea Level Pressure 30.09 in    
Wind  
Wind Speed 2 mph (SSW)    
Max Wind Speed 9 mph    
Max Gust Speed 13 mph    
Visibility 10 miles    
Events      
T = Trace of Precipitation, MM = Missing Value Source: NWS Daily Summary

Daily Weather History Graph

Daily Weather History Graph

Search for Another Location

Airport:

Trip Planner

Search our weather history database for the weather conditions in past years. The results will help you decide how hot, cold, wet, or windy it might be!

Date:

Astronomy

Nov. 07, 2013 Rise Set
Actual Time 6:44 AM PST 5:04 PM PST
Civil Twilight 6:16 AM PST 5:32 PM PST
Nautical Twilight 5:45 AM PST 6:04 PM PST
Astronomical Twilight 5:14 AM PST 6:35 PM PST
Moon 10:57 AM PST (11/7) 9:23 PM PST (11/7)
Length of Visible Light 11h 15m
Length of Day
10h 20m
Waxing Crescent, 24% of the Moon is Illuminated
Nov 7
Waxing Crescent
Nov 9
First Quarter
Nov 17
Full
Nov 25
Last Quarter
Dec 2
New

Hourly Weather History & Observations

Time (PST) Temp. Dew Point Humidity Pressure Visibility Wind Dir Wind Speed Gust Speed Precip Events Conditions
12:53 AM 52.0 °F 39.0 °F 61% 30.15 in 10.0 mi NNW 4.6 mph - N/A   Clear
1:53 AM 50.0 °F 39.0 °F 66% 30.13 in 10.0 mi ESE 3.5 mph - N/A   Clear
2:53 AM 50.0 °F 39.0 °F 66% 30.12 in 10.0 mi Calm Calm - N/A   Clear
3:53 AM 48.9 °F 39.9 °F 71% 30.12 in 10.0 mi West 4.6 mph - N/A   Clear
4:53 AM 48.9 °F 39.9 °F 71% 30.12 in 10.0 mi Calm Calm - N/A   Clear
5:53 AM 46.9 °F 39.9 °F 77% 30.12 in 10.0 mi Calm Calm - N/A   Clear
6:53 AM 46.9 °F 39.9 °F 77% 30.13 in 10.0 mi Calm Calm - N/A   Mostly Cloudy
7:53 AM 50.0 °F 41.0 °F 71% 30.15 in 10.0 mi Calm Calm - N/A   Scattered Clouds
8:53 AM 55.9 °F 41.0 °F 57% 30.15 in 10.0 mi Calm Calm - N/A   Scattered Clouds
9:53 AM 61.0 °F 39.9 °F 46% 30.14 in 10.0 mi Calm Calm - N/A   Scattered Clouds
10:53 AM 66.9 °F 37.9 °F 34% 30.13 in 10.0 mi Calm Calm - N/A   Scattered Clouds
11:53 AM 71.1 °F 35.1 °F 27% 30.10 in 10.0 mi SSW 3.5 mph - N/A   Clear
12:53 PM 73.0 °F 37.0 °F 27% 30.08 in 10.0 mi Calm Calm - N/A   Clear
1:53 PM 73.9 °F 37.9 °F 27% 30.06 in 10.0 mi WSW 5.8 mph - N/A   Scattered Clouds
2:53 PM 73.9 °F 37.9 °F 27% 30.05 in 10.0 mi South 8.1 mph - N/A   Clear
3:53 PM 73.0 °F 37.0 °F 27% 30.04 in 10.0 mi SSW 5.8 mph - N/A   Clear
4:53 PM 69.1 °F 39.9 °F 35% 30.04 in 10.0 mi South 3.5 mph - N/A   Clear
5:53 PM 60.1 °F 46.9 °F 62% 30.05 in 10.0 mi SE 6.9 mph - N/A   Clear
6:53 PM 57.0 °F 48.9 °F 74% 30.06 in 10.0 mi SSE 5.8 mph - N/A   Clear
7:53 PM 55.0 °F 50.0 °F 83% 30.06 in 10.0 mi Calm Calm - N/A   Clear
8:53 PM 51.1 °F 46.9 °F 86% 30.06 in 10.0 mi West 3.5 mph - N/A   Clear
9:53 PM 50.0 °F 46.9 °F 89% 30.07 in 10.0 mi Calm Calm - N/A   Clear
10:53 PM 46.9 °F 45.0 °F 93% 30.06 in 10.0 mi Calm Calm - N/A   Clear
11:53 PM 45.0 °F 43.0 °F 93% 30.06 in 8.0 mi Calm Calm - N/A   Clear